Погода в Мелехином

Россия / Тюменская область     56°03′01″N   68°34′35″E
темп.,
°C
ветер,
м/с
пор.,
м/с
влажн.,
%
обл.,
%
осадки,
мм/ч
давл.,
гПа
погр.,
м
18 апреля, вс
вс1823:00+5зюз496983 0.0 1018182
02:00+3зюз357393 0.0 101577
05:00+3зюз4975100 0.0 1014162
08:00+5з61363100 0.0 1011714
11:00+8зсз91357100 0.0 10101600
14:00+3ссз11145029 0.3 10151364
17:000с101348100 0.3 10211634
20:00−3с810455 0.0 10251414
19 апреля, пн
пн1923:00−5с79525 0.0 10281109
02:00−6с68497 0.0 10301113
05:00−7с574912 0.0 10321103
08:00−7ссв67415 0.0 10331224
11:00−4с673395 0.0 10331706
14:00−1с5729100 0.0 10322214
17:00−1с5730100 0.0 10322106
20:00−3ссв35445 0.0 1033107
20 апреля, вт
вт2023:00−4ссв24482 0.0 1034108
02:00−5св11480 0.0 103430
05:00−5зсз22475 0.0 103441
08:00−2зсз45345 0.0 1033942
11:00+1з56295 0.0 10311252
14:00+5з79315 0.0 10281642
17:00+6зсз710385 0.0 10251755
20:00+3з41056100 0.0 1024177
21 апреля, ср
ср2123:00+2зсз51362100 0.0 1024295
02:00+1ссз497765 0.0 1024211
05:000ссз410905 0.0 1025282
08:00+2с710685 0.0 1028824
11:00+4с794729 0.0 10291141
14:00+6ссв68405 0.0 10301463
17:00+6ссв57385 0.0 10321605
20:00+3св36544 0.0 1034112
22 апреля, чт
чт2223:00+1в36650 0.0 1036125
02:000вюв22670 0.0 103835
05:00−1юв22680 0.0 104022
08:00+2ююв22540 0.0 1041441
11:00+5ююв32430 0.0 10411107
14:00+8ю32360 0.0 10401427
17:00+9ю32340 0.0 10401486
20:00+6ююв35485 0.0 104173